Cadillac, MI

2:55 AM EDT on October 15, 2019 (GMT -0400)
Wexford County

Weather History for KCAD - September, 2019

Change the Weather History Date:

Tuesday, September 17, 2019

  Actual Average Record
Temperature  
Mean Temperature 67 °F -  
Max Temperature 77 °F 66 °F 87 °F (1955)
Min Temperature 57 °F 43 °F 27 °F (1973)
Cooling Degree Days 2    
Growing Degree Days 17 (Base 50)    
Moisture  
Dew Point 58 °F    
Average Humidity 76    
Maximum Humidity 94    
Minimum Humidity 45    
Precipitation  
Precipitation 0.00 in - - ()
Sea Level Pressure  
Sea Level Pressure 30.20 in    
Wind  
Wind Speed 3 mph (SE)    
Max Wind Speed 8 mph    
Max Gust Speed -    
Visibility 7 miles    
Events Fog    
Averages and records for this station are not official NWS values.
T = Trace of Precipitation, MM = Missing Value Source: NWS Daily Summary

Daily Weather History Graph

Daily Weather History Graph

Search for Another Location

Airport or City:

Astronomy

Sep. 17, 2019 Rise Set
Actual Time 7:22 AM EDT 7:48 PM EDT
Civil Twilight 6:53 AM EDT 8:17 PM EDT
Nautical Twilight 6:19 AM EDT 8:52 PM EDT
Astronomical Twilight 5:43 AM EDT 9:27 PM EDT
Moon 9:44 PM EDT (9/17) 10:32 AM EDT (9/17)
Length of Visible Light 13h 24m
Length of Day
12h 26m
Waning Gibbous, 89% of the Moon is Illuminated
Sep 17
Waning Gibbous
Sep 21
Last Quarter
Sep 28
New
Oct 5
First Quarter
Oct 13
Full

Hourly Weather History & Observations

Time (EDT) Temp. Dew Point Humidity Pressure Visibility Wind Dir Wind Speed Gust Speed Precip Events Conditions
12:00 AM - - N/A% 30.18 in 0.2 mi Calm Calm - N/A Fog Fog
12:18 AM 59.0 °F 55.4 °F 88% 30.17 in 10.0 mi Calm Calm - N/A   Overcast
12:36 AM 59.0 °F 56.3 °F 91% 30.18 in 10.0 mi Calm Calm - N/A   Overcast
12:55 AM 59.5 °F 56.8 °F 91% 30.18 in 10.0 mi Calm Calm - N/A   Overcast
12:56 AM 59.7 °F 57.0 °F 91% 30.18 in 10.0 mi Calm Calm - N/A   Overcast
1:15 AM 62.6 °F 59.9 °F 91% 30.17 in 10.0 mi ENE 3.5 mph - N/A   Overcast
1:16 AM 62.6 °F 59.9 °F 91% 30.17 in 10.0 mi ENE 3.5 mph - N/A   Overcast
1:39 AM 63.3 °F 60.6 °F 91% 30.18 in 3.0 mi Calm Calm - N/A   Overcast
1:57 AM 62.6 °F 60.8 °F 94% 30.18 in 1.0 mi Calm Calm - N/A   Overcast
2:15 AM - - N/A% 30.18 in 1.0 mi ESE 5.8 mph - N/A   Overcast
2:35 AM - - N/A% 30.17 in 0.8 mi East 5.8 mph - N/A   Overcast
2:36 AM - - N/A% 30.17 in 0.8 mi ESE 5.8 mph - N/A   Overcast
2:55 AM - - N/A% 30.18 in 0.8 mi SE 5.8 mph - N/A   Overcast
3:17 AM - - N/A% 30.18 in 0.8 mi ESE 4.6 mph - N/A   Overcast
3:36 AM - - N/A% 30.18 in 0.5 mi SE 4.6 mph - N/A Fog Fog
3:55 AM 62.6 °F 59.9 °F 91% 30.18 in 0.8 mi SE 3.5 mph - N/A   Overcast
3:56 AM 62.6 °F 59.9 °F 91% 30.18 in 0.8 mi SE 3.5 mph - N/A   Overcast
4:15 AM 62.6 °F 59.9 °F 91% 30.18 in 0.8 mi SE 3.5 mph - N/A   Overcast
4:16 AM 62.6 °F 59.9 °F 91% 30.18 in 0.8 mi SE 4.6 mph - N/A   Overcast
4:39 AM 62.4 °F 59.7 °F 91% 30.19 in 0.8 mi SE 4.6 mph - N/A   Overcast
4:57 AM 62.1 °F 59.4 °F 91% 30.19 in 0.8 mi ESE 6.9 mph - N/A   Overcast
5:35 AM 61.7 °F 59.0 °F 91% 30.20 in 0.8 mi SE 4.6 mph - N/A   Overcast
5:36 AM 61.7 °F 59.0 °F 91% 30.20 in 0.8 mi SSE 5.8 mph - N/A   Overcast
5:55 AM 61.7 °F 59.0 °F 91% 30.20 in 0.8 mi SE 5.8 mph - N/A   Overcast
6:18 AM 61.3 °F 58.6 °F 91% 30.21 in 0.8 mi SE 5.8 mph - N/A   Overcast
6:36 AM 61.0 °F 58.3 °F 91% 30.22 in 0.5 mi ESE 5.8 mph - N/A Fog Fog
6:55 AM 60.8 °F 58.1 °F 91% 30.22 in 1.2 mi SE 3.5 mph - N/A   Overcast
6:56 AM 60.8 °F 58.1 °F 91% 30.22 in 1.2 mi SE 3.5 mph - N/A   Overcast
7:15 AM 60.4 °F 57.7 °F 91% 30.23 in 1.0 mi ESE 5.8 mph - N/A   Overcast
7:39 AM 60.3 °F 57.6 °F 91% 30.23 in 0.2 mi ESE 4.6 mph - N/A Fog Fog
7:57 AM 60.6 °F 57.9 °F 91% 30.23 in 0.2 mi SSE 3.5 mph - N/A Fog Fog
8:15 AM 60.4 °F 57.7 °F 91% 30.24 in 0.5 mi SSE 4.6 mph - N/A Fog Fog
8:35 AM 60.8 °F 58.1 °F 91% 30.24 in 0.5 mi South 3.5 mph - N/A Fog Fog
8:36 AM 60.8 °F 58.1 °F 91% 30.24 in 0.8 mi South 3.5 mph - N/A   Overcast
8:55 AM 61.0 °F 58.3 °F 91% 30.23 in 4.0 mi SSE 3.5 mph - N/A   Overcast
9:00 AM 61.2 °F 58.5 °F 91% 30.23 in 4.0 mi SSE 4.6 mph - N/A   Overcast
9:36 AM 61.9 °F 59.2 °F 91% 30.23 in 7.0 mi SSE 4.6 mph - N/A   Overcast
9:55 AM 63.1 °F 60.4 °F 91% 30.23 in 10.0 mi SSE 4.6 mph - N/A   Scattered Clouds
10:15 AM 64.0 °F 61.3 °F 91% 30.23 in 10.0 mi South 5.8 mph - N/A   Clear
10:16 AM 64.2 °F 61.5 °F 91% 30.22 in 10.0 mi South 5.8 mph - N/A   Clear
10:39 AM 66.0 °F 61.2 °F 84% 30.22 in 10.0 mi SSE 3.5 mph - N/A   Clear
10:57 AM 67.1 °F 61.3 °F 82% 30.22 in 10.0 mi SSW 4.6 mph - N/A   Clear
11:15 AM 68.4 °F 60.3 °F 75% 30.22 in 10.0 mi South 6.9 mph - N/A   Clear
11:35 AM 68.7 °F 60.3 °F 74% 30.21 in 10.0 mi South 5.8 mph - N/A   Clear
11:55 AM 69.6 °F 61.3 °F 75% 30.20 in 10.0 mi SW 8.1 mph - N/A   Clear
12:18 PM 70.7 °F 59.9 °F 69% 30.23 in 10.0 mi East 4.6 mph - N/A   Clear
12:36 PM 71.1 °F 58.1 °F 63% 30.23 in 10.0 mi SSE 4.6 mph - N/A   Clear
12:55 PM 72.5 °F 61.0 °F 67% 30.23 in 10.0 mi ENE 4.6 mph - N/A   Clear
1:15 PM 72.9 °F 60.3 °F 65% 30.23 in 10.0 mi East 5.8 mph - N/A   Clear
1:39 PM 74.1 °F 58.8 °F 59% 30.23 in 10.0 mi SE 4.6 mph - N/A   Clear
1:57 PM 74.7 °F 59.2 °F 58% 30.23 in 10.0 mi East 5.8 mph - N/A   Clear
2:15 PM 75.4 °F 58.6 °F 56% 30.22 in 10.0 mi ESE 4.6 mph - N/A   Clear
2:35 PM 75.2 °F 58.6 °F 56% 30.21 in 10.0 mi South 4.6 mph - N/A   Clear
2:55 PM 76.1 °F 58.3 °F 54% 30.21 in 10.0 mi ESE 6.9 mph - N/A   Clear
3:00 PM 77.0 °F 58.3 °F 52% 30.21 in 10.0 mi SE 6.9 mph - N/A   Clear
3:18 PM 76.3 °F 55.4 °F 48% 30.20 in 10.0 mi SE 4.6 mph - N/A   Clear
3:36 PM 75.9 °F 54.5 °F 47% 30.20 in 10.0 mi SSE 4.6 mph - N/A   Clear
3:55 PM 77.0 °F 54.3 °F 45% 30.19 in 10.0 mi SE 5.8 mph - N/A   Clear
4:15 PM 77.5 °F 55.6 °F 47% 30.19 in 10.0 mi ESE 6.9 mph - N/A   Clear
4:16 PM 77.5 °F 55.8 °F 47% 30.19 in 10.0 mi East 8.1 mph - N/A   Clear
4:39 PM 77.2 °F 54.5 °F 45% 30.18 in 10.0 mi East 6.9 mph - N/A   Clear
4:57 PM 77.2 °F 54.7 °F 46% 30.18 in 10.0 mi ESE 5.8 mph - N/A   Clear
5:15 PM 76.5 °F 54.5 °F 46% 30.17 in 10.0 mi SE 6.9 mph - N/A   Clear
5:16 PM 76.6 °F 54.9 °F 47% 30.17 in 10.0 mi SE 5.8 mph - N/A   Clear
5:35 PM 76.3 °F 54.1 °F 46% 30.17 in 10.0 mi ESE 5.8 mph - N/A   Clear
5:36 PM 76.1 °F 54.1 °F 46% 30.17 in 10.0 mi ESE 5.8 mph - N/A   Clear
5:55 PM 75.7 °F 54.5 °F 48% 30.17 in 10.0 mi SE 6.9 mph - N/A   Clear
6:00 PM 75.7 °F 53.8 °F 46% 30.17 in 10.0 mi ESE 5.8 mph - N/A   Clear
6:18 PM 74.8 °F 54.3 °F 49% 30.17 in 10.0 mi ESE 8.1 mph - N/A   Clear
6:36 PM 73.0 °F 52.9 °F 49% 30.16 in 10.0 mi ESE 6.9 mph - N/A   Clear
6:55 PM 72.1 °F 55.9 °F 57% 30.17 in 10.0 mi ESE 6.9 mph - N/A   Clear
6:56 PM 72.0 °F 55.9 °F 57% 30.17 in 10.0 mi ESE 5.8 mph - N/A   Clear
7:15 PM 70.2 °F 56.3 °F 61% 30.17 in 10.0 mi SE 6.9 mph - N/A   Clear
7:16 PM 70.2 °F 56.5 °F 62% 30.17 in 10.0 mi SE 5.8 mph - N/A   Clear
7:39 PM 68.4 °F 57.6 °F 68% 30.17 in 10.0 mi SE 3.5 mph - N/A   Clear
7:57 PM 67.8 °F 58.1 °F 71% 30.17 in 10.0 mi SE 4.6 mph - N/A   Clear
8:15 PM 66.0 °F 59.0 °F 78% 30.17 in 10.0 mi ESE 4.6 mph - N/A   Clear
8:35 PM 66.2 °F 59.7 °F 80% 30.18 in 10.0 mi Calm Calm - N/A   Clear
8:55 PM 64.6 °F 59.9 °F 85% 30.18 in 10.0 mi Calm Calm - N/A   Clear
9:00 PM 64.2 °F 59.5 °F 85% 30.18 in 10.0 mi SE 3.5 mph - N/A   Clear
9:18 PM 63.7 °F 60.8 °F 90% 30.18 in 10.0 mi Calm Calm - N/A   Clear
9:36 PM 64.0 °F 61.2 °F 90% 30.18 in 10.0 mi SE 3.5 mph - N/A   Clear
9:55 PM 63.3 °F 60.4 °F 90% 30.19 in 10.0 mi Calm Calm - N/A   Clear
9:56 PM 63.1 °F 60.3 °F 90% 30.19 in 10.0 mi Calm Calm - N/A   Clear
10:15 PM 61.2 °F 58.5 °F 91% 30.19 in 10.0 mi Calm Calm - N/A   Clear
10:16 PM 61.0 °F 58.3 °F 91% 30.19 in 10.0 mi Calm Calm - N/A   Clear
10:39 PM 59.2 °F 56.5 °F 91% 30.19 in 10.0 mi Calm Calm - N/A   Clear
10:57 PM 57.7 °F 55.0 °F 91% 30.19 in 10.0 mi Calm Calm - N/A   Clear
11:15 PM 57.6 °F 54.9 °F 91% 30.19 in 10.0 mi Calm Calm - N/A   Clear
11:35 PM 57.4 °F 54.7 °F 91% 30.19 in 10.0 mi Calm Calm - N/A   Clear
11:55 PM 57.7 °F 55.0 °F 91% 30.18 in 10.0 mi Calm Calm - N/A   Clear